Location: Carlingford
(46.7848°N, 67.7474°W)
Time: 12:15:14
(UTC+00:00)

N. Korean satellite - Pass Details

Date: 04 December 2022
Orbit: 407 x 441 km, 97.3° (Epoch: 05 February)

Event Time Altitude Azimuth Distance (km) Brightness Sun altitude
Rises 11:10:00 0° 353° (N) 2,525 9.9 -8.2°
Reaches altitude 10° 11:13:00 10° 325° (NW) 1,635 8.7 -7.7°
Maximum altitude 11:14:36 13° 297° (WNW) 1,462 8.3 -7.5°
Drops below altitude 10° 11:16:12 10° 270° (W) 1,619 8.7 -7.2°
Sets 11:19:09 0° 241° (WSW) 2,475 9.8 -6.8°
